• MPC Preparation (Info)

  • MPEC 2024-C149 : 2024 CM3

    The following Minor Planet Electronic Circular may be linked-to from your own Web pages, but must not otherwise be redistributed electronically.

    A form allowing access to any MPEC is at the bottom of this page.


    Read MPEC 2024-C148 Read MPEC 2024-C150


    M.P.E.C. 2024-C149                            Issued 2024 February 13, 13:33 UT
    
         The Minor Planet Electronic Circulars contain information on unusual
             minor planets, routine data on comets and natural satellites,
             and occasional editorial announcements.  They are published
        on behalf of Division F of the International Astronomical Union by the
              Minor Planet Center, Smithsonian Astrophysical Observatory,
                              Cambridge, MA 02138, U.S.A.
    			  
                 Prepared using the Tamkin Foundation Computer Network
    
                                  MPC@CFA.HARVARD.EDU
                URL https://www.minorplanetcenter.net/    ISSN 1523-6714
    
                                    2024 CM3                                 
    
    
    Observations:
         K24C03M* C2024 02 09.54767912 32 48.991+08 34 32.46         21.21wXEC149F52
         K24C03M  C2024 02 09.55951312 32 51.147+08 34 37.38         21.26wXEC149F52
         K24C03M  C2024 02 09.57136012 32 53.294+08 34 42.45         20.79wXEC149F52
         K24C03M  C2024 02 10.15613112 34 45.42 +08 39 09.5                WEC149X09
         K24C03M  C2024 02 10.16891612 34 47.79 +08 39 14.3                WEC149X09
         K24C03M |C2024 02 10.29222012 35 10.510+08 40 09.60         20.5 GVEC149807
         K24C03M |C2024 02 10.29669212 35 11.340+08 40 11.80         20.5 GVEC149807
         K24C03M |C2024 02 10.30102012 35 12.120+08 40 13.60         20.5 GVEC149807
         K24C03M  C2024 02 10.46991912 35 44.771+08 41 09.31         21.08GVEC149F52
         K24C03M  C2024 02 10.47073812 35 44.910+08 41 09.67         21.01GVEC149F52
         K24C03M  C2024 02 10.48198812 35 46.987+08 41 14.77         21.02wXEC149F52
         K24C03M  C2024 02 10.49372012 35 49.129+08 41 20.08         21.12wXEC149F52
         K24C03M  C2024 02 10.50537512 35 51.257+08 41 25.18         21.11wXEC149F52
         K24C03M 1C2024 02 13.08546 12 44 02.88 +09 01 05.1          21.2 VXEC149033
         K24C03M 1C2024 02 13.08685 12 44 03.13 +09 01 05.5          21.4 VXEC149033
         K24C03M 1C2024 02 13.08824 12 44 03.33 +09 01 05.7          21.0 VXEC149033
         K24C03M KC2024 02 13.11227 12 44 07.92 +09 01 19.4                VEC149204
         K24C03M KC2024 02 13.13344 12 44 11.82 +09 01 29.4          20.6 GVEC149204
         K24C03M |C2024 02 13.26740012 44 38.040+09 03 01.50         21.4 GVEC149807
         K24C03M |C2024 02 13.27188012 44 38.890+09 03 03.30         21.2 GVEC149807
         K24C03M |C2024 02 13.27621012 44 39.680+09 03 04.70         21.4 GVEC149807
    
    Observer details:
    033 Karl Schwarzschild Observatory, Tautenburg.  Observers S. Melnikov, C.
        Hogner, F. Ludwig, M. Hartmann, B. Stecklum.  Measurer B. Stecklum.
        1.34-m f/3 Schmidt + CCD.
    204 Schiaparelli Observatory.  Observer L. Buzzi.  0.84-m f/3.5 reflector +
        CMO.
    807 Cerro Tololo Observatory, La Serena.  Observers T. Linder, R. Holmes.
        0.61-m f/11 Ritchey-Chretien + CCD.
    F52 Pan-STARRS 2, Haleakala.  Observers J. Herman, T. Lowe, P. Minguez, A.
        Schultz, I. Smith.  Measurers K. Chambers, T. de Boer, J. Fairlamb, H.
        Gao, M. Huber, C.-C. Lin, E. Magnier, Y. Ramanjooloo, R. Wainscoat, R.
        Weryk.  1.8-m Ritchey-Chretien + CCD.
    X09 Deep Random Survey, Rio Hurtado.  Observers A. Schnabel, D. Ruhela.
        Measurer S. Deen.  0.43-m reflector + CMOS.
    
    Orbital elements:
    2024 CM3                                                 Earth MOID = 0.2963 AU
    Epoch 2023 Sept. 13.0 TT = JDT 2460200.5                Veres                   
    M 325.44650              (2000.0)            P               Q                  
    n   0.19084936     Peri.   53.22019     -0.99378360     -0.00533910             
    a   2.9877362      Node   126.20975     -0.03063811     -0.94716377             
    e   0.5758926      Incl.    7.92169     +0.10703021     -0.32070591             
    P   5.16           H   21.12          G   0.15           U   9                  
    Residuals in seconds of arc
    240209 F52  0.0   0.0     240210 807  0.0   0.1+    240213 033  0.3-  0.1-
    240209 F52  0.1+  0.1-    240210 F52  0.1-  0.1-    240213 033  1.1-  0.5-
    240209 F52  0.0   0.1-    240210 F52  0.2-  0.1-    240213 204  0.2+  0.1+
    240210 X09  0.1-  0.4+    240210 F52  0.0   0.1-    240213 204  0.1+  0.1-
    240210 X09  0.3-  0.6-    240210 F52  0.1-  0.0     240213 807  0.5-  0.8+
    240210 807  0.1-  0.1-    240210 F52  0.1-  0.1-    240213 807  0.1-  0.4+
    240210 807  0.1+  0.2+    240213 033  0.1-  0.2+    240213 807  0.1-  0.3-
    
    Ephemeris:
    2024 CM3                 a,e,i = 2.99, 0.58, 8                   q = 1.2671
    Date    TT    R. A. (2000) Decl.     Delta      r    Elong.  Phase     V
    2024 01 14    11 14 39.4 +07 17 05   0.6073  1.4289   126.2    33.7    22.2
    ...
    2024 01 29    11 57 10.5 +07 34 07   0.4897  1.3599   131.5    32.8    21.6
    ...
    2024 02 06    12 21 39.5 +08 11 31   0.4406  1.3297   133.9    32.3    21.3
    ...
    2024 02 12    12 40 35.3 +08 52 45   0.4101  1.3106   135.3    32.0    21.1
    2024 02 13    12 43 46.3 +09 00 38   0.4055  1.3077   135.5    31.9    21.1
    2024 02 14    12 46 57.5 +09 08 46   0.4011  1.3049   135.7    31.9    21.1
    ...
    2024 02 20    13 06 05.2 +10 02 13   0.3778  1.2902   136.8    31.6    20.9
    ...
    2024 02 28    13 31 03.3 +11 21 43   0.3546  1.2760   138.0    31.3    20.7
    ...
    2024 03 14    14 12 18.1 +13 46 10   0.3330  1.2672   139.9    30.4    20.6
    
    M. P. C. Staff               (C) Copyright 2024 MPC           M.P.E.C. 2024-C149
    


    Read MPEC 2024-C148 Read MPEC 2024-C150


    MPEC number:

    Enter an MPEC number in one of the following forms:

    • 1997-B01 (the full form)
    • J97B01 (the packed version of the full form)
    • B01 (the abbreviated form)